Regional Weather Roundup
Issued by NWS

Home | Current Version | Previous Version | Graphics & Text | Print | Product List | Glossary On
Versions: 1 2 3 4 5 6 7 8 9 10 11 12 13 14 15 16 17 18 19 20 21 22 23 24 25 26 27 28 29 30 31 32 33 34 35 36 37 38 39 40 41 42 43 44 45 46 47 48 49 50
000
ASUS43 KOAX 281402
RWRNE

WEATHER ROUNDUP FOR NEBRASKA
NATIONAL WEATHER SERVICE OMAHA NE
900 AM CDT WED SEP 28 2016

NOTES: SATELLITE DATA IS BEING USED TO AUGMENT CLOUD COVER ABOVE
       12000 FEET.
       "FAIR" INDICATES FEW OR NO CLOUDS BELOW 12,000 FEET WITH NO
       SIGNIFICANT WEATHER AND/OR OBSTRUCTIONS TO VISIBILITY.

  * THESE STATIONS DO NOT REPORT WEATHER SUCH AS RAIN...SNOW OR FOG.

NEZ001>004-019>022-054>056-281500-
NEBRASKA PANHANDLE

CITY           SKY/WX    TMP DP  RH WIND       PRES   REMARKS
SCOTTSBLUFF    SUNNY     51  41  68 NW6       30.28R
ALLIANCE       SUNNY     46  42  86 CALM      30.26R
CHADRON        SUNNY     48  43  82 SW3       30.25R
SIDNEY         SUNNY     54  41  61 NW10      30.28R
$$

NEZ057>060-069>072-079>082-281500-
SOUTHWEST NEBRASKA

CITY           SKY/WX    TMP DP  RH WIND       PRES   REMARKS
NORTH PLATTE   SUNNY     50  45  83 CALM      30.21R
IMPERIAL       SUNNY     54  40  59 N6        30.21R
LEXINGTON      SUNNY     51  45  80 NW3       30.19R
MCCOOK         SUNNY     51  43  74 CALM      30.19R
OGALLALA       SUNNY     52  44  74 SW5       30.22R
$$

NEZ005>010-023>029-035>040-094-281500-
NORTH CENTRAL NEBRASKA

CITY           SKY/WX    TMP DP  RH WIND       PRES   REMARKS
VALENTINE      SUNNY     47  40  76 CALM      30.22R
AINSWORTH      SUNNY     48  45  87 CALM      30.21R
BROKEN BOW     SUNNY     53  43  68 N7        30.19R
O`NEILL        SUNNY     47  41  79 N6        30.19R
ORD            SUNNY     51  42  71 N6        30.17R
THEDFORD       SUNNY     48  44  87 CALM      30.21S
$$

NEZ041-046>049-061>064-073>077-083>087-281500-
SOUTH CENTRAL NEBRASKA

CITY           SKY/WX    TMP DP  RH WIND       PRES   REMARKS
GRAND ISLAND   SUNNY     51  43  74 N8        30.17R
AURORA         SUNNY     52  43  73 N8        30.16R
HASTINGS       SUNNY     54  43  66 N9        30.17R
HEBRON         SUNNY     54  43  68 N5        30.13R
HOLDREGE       SUNNY     54  43  67 N7        30.17R
KEARNEY *      SUNNY     54  41  62 N12       30.17R
YORK           SUNNY     50  45  81 N9        30.15R
$$

NEZ011>018-030>034-042>045-281500-
NORTHEAST NEBRASKA

CITY           SKY/WX    TMP DP  RH WIND       PRES   REMARKS
NORFOLK        SUNNY     49  41  74 N12       30.16R
ALBION         SUNNY     47  41  78 NW7       30.17R
BLAIR          SUNNY     51  44  77 N10       30.12R
FREMONT        SUNNY     50  43  78 N3        30.14R
TEKAMAH        MOSUNNY   51  44  77 N15       30.14R
WAYNE          SUNNY     48  44  84 N8        30.17R
$$

NEZ050>053-065>068-078-088>093-281500-
SOUTHEAST NEBRASKA

CITY           SKY/WX    TMP DP  RH WIND       PRES   REMARKS
LINCOLN        SUNNY     52  44  74 N9        30.15R
OMAHA EPPLEY   MOSUNNY   51  44  77 N14       30.12R
BEATRICE       SUNNY     54  44  70 N13       30.12R
FALLS CITY     SUNNY     54  45  71 N12       30.08R
NEBRASKA CITY  MOSUNNY   53  41  64 N8        30.11R
PLATTSMOUTH    MOSUNNY   52  42  68 N8        30.11R
$$

NEZ044-045-051>053-067-281500-
OMAHA AREA

CITY           SKY/WX    TMP DP  RH WIND       PRES   REMARKS
OMAHA EPPLEY   MOSUNNY   51  44  77 N14       30.12R
BLAIR          SUNNY     51  44  77 N10       30.12R
FREMONT        SUNNY     50  43  78 N3        30.14R
MILLARD        SUNNY     52  43  71 N10       30.13R
OFFUTT AFB     SUNNY     52  45  76 N8G18     30.11R
PLATTSMOUTH    MOSUNNY   52  42  68 N8        30.11R
WAHOO          FAIR      51  44  76 N9        30.13R
$$




USA.gov is the U.S. government's official web portal to all federal, state and local government web resources and services.